Tracking 18843 objects as of 20-November-2017
HD Live streaming from Space Station
objects crossing your sky now

SL-12 DEB

Track SL-12 DEB now!
10-day predictions


NORAD ID: 42973
Int'l Code: 2010-041N
Perigee: 600.4 km
Apogee: 18,921.4 km
Inclination: 65.0 °
Period: 339.9 minutes
Semi major axis: 16131 km
RCS: Unknown
Launch date: September 2, 2010
Source: Commonwealth of Independent States (former USSR) (CIS)
Launch site: TYURATAM MISSILE AND SPACE COMPLEX (TTMTR)

Note: This is SATELLITE DEBRIS
aabbcc
Your satellite tracking list
Your tracking list is empty




NASA's NSSDC Master Catalog

Two Line Element Set (TLE):
1 42973U 10041N   17323.65872454  .00003732  00000-0  17384-1 0  9997
2 42973  64.9752 149.8690 5678490  81.2182 335.9482  4.23714513  3252
Source of the keplerian elements: AFSPC